OpenBCM V1.08-5-g2f4a (Linux)

Packet Radio Mailbox

IZ3LSV

[San Dona' di P. JN]

 Login: GUEST





  
I0OJJ  > KEPS     26.04.25 14:25l 353 Lines 16919 Bytes #38 (0) @ AMSAT
BID : ORB25114.1
Read: GUEST
Subj: 2Line Orbital Elements 25114.AMSAT
Path: IZ3LSV<ED1ZAC<GB7CIP<VK2RZ<LU9DCE<EA2RCF<I0OJJ
Sent: 250424/0025z @:I0OJJ.ITA.EU [Rome] obcm1.08-6-g5b69
From: I0OJJ @ I0OJJ.ITA.EU (Gustavo)
To:   KEPS @ AMSAT
X-Info: This message was generated automatically


QST de W1STR

AMSAT Orbital Elements for Amateur Satellites in TLE Format
From Orbital Analysis Office
New England Sci-Tech STEM Education Center
Natick, MA April 24, 2025
To all radio amateurs


These element sets describe the orbits of various satellites 
in use by the amateur radio community. For details see:
www.amsat.org/keplerian-elements-formats/

A daily update of element sets is available at:
www.amsat.org/tle/daily-bulletin.txt
or without bulletin text:
www.amsat.org/tle/dailytle.txt


AO-07
1 07530U 74089B   25111.96149156 -.00000017  00000-0  18136-3 0  9995
2 07530 101.9948 115.7057 0011997 213.4678 174.7558 12.53688456307974
UO-11
1 14781U 84021B   25113.77213234  .00002913  00000-0  31362-3 0  9990
2 14781  97.7500  81.0838 0009144 124.2534 235.9551 14.89208865215670
AO-27
1 22825U 93061C   25113.08412465  .00000232  00000-0  10564-3 0  9996
2 22825  98.7405 174.3938 0007346 248.8563 111.1835 14.30779522647192
FO-29
1 24278U 96046B   25112.69503006  .00000001  00000-0  33772-4 0  9995
2 24278  98.5807  12.8810 0350885 106.6065 257.3907 13.53244681416297
NOAA-15
1 25338U 98030A   25113.83193479  .00000349  00000-0  16114-3 0  9999
2 25338  98.5394 140.0799 0011240 132.3242 227.8893 14.26948873401732
GO-32
1 25397U 98043D   25112.85233748  .00000210  00000-0  11090-3 0  9998
2 25397  98.9676  90.9840 0001514  31.4617 328.6651 14.24299311391499
ISS
1 25544U 98067A   25112.83104192  .00022666  00000-0  40580-3 0  9991
2 25544  51.6380 221.2117 0005698  66.6769  78.6517 15.49861426506572
NO-44
1 26931U 01043C   25112.79389311  .00000454  00000-0  20118-3 0  9999
2 26931  67.0506 251.3871 0005593 271.5881  88.4580 14.31704433230264
SO-50
1 27607U 02058C   25112.62765717  .00002518  00000-0  33209-3 0  9995
2 27607  64.5557 348.5383 0050600 345.4198  14.5444 14.81465315202122
CO-55
1 27844U 03031E   25112.96940183  .00000663  00000-0  30809-3 0  9991
2 27844  98.6779 121.8548 0008957 332.7656  27.3052 14.23949529131869
CO-57
1 27848U 03031J   25112.47387228  .00000584  00000-0  27691-3 0  9993
2 27848  98.6805 121.4074 0009306 352.1561   7.9470 14.23290160131524
RS-22
1 27939U 03042A   25113.85878642  .00002537  00000-0  41027-3 0  9993
2 27939  98.3243 282.1953 0012137 153.2438 343.2859 14.72201568153954
NOAA-18
1 28654U 05018A   25113.83583008  .00000325  00000-0  19590-3 0  9993
2 28654  98.8424 193.8367 0013106 260.6916  99.2775 14.13582270 27146
CO-58
1 28895U 05043F   25112.83274646  .00003651  00000-0  60503-3 0  9997
2 28895  98.2418 256.6110 0015877  99.0573 261.2430 14.70802823 39924
CO-65
1 32785U 08021C   25113.10767625  .00009516  00000-0  69520-3 0  9998
2 32785  97.7824  83.9496 0010845  26.9209 333.2577 15.03824629922013
AAUSAT2
1 32788U 08021F   25112.93635310  .00341411  00000-0  21664-2 0  9995
2 32788  97.6006 109.2863 0009124 129.6977 230.5093 15.75499240925974
CO-66
1 32791U 08021J   25112.91642672  .00020194  00000-0  10146-2 0  9991
2 32791  97.7255  91.9487 0003691  15.8539 344.2809 15.17301461923268
RS-30
1 32953U 08025A   25113.80457880  .00000033  00000-0  16863-3 0  9992
2 32953  82.5005 256.2658 0020244 146.2669 213.9703 12.43162963767725
NOAA-19
1 33591U 09005A   25113.83468571  .00000305  00000-0  18633-3 0  9991
2 33591  99.0003 178.2705 0014670 133.6096 226.6296 14.13346979835501
SRMSAT
1 37841U 11058D   25113.05627346  .00000571  00000-0  16630-3 0  9995
2 37841  19.9716  82.1274 0011567 261.7792 357.8696 14.11416196698614
ZACUBE-1
1 39417U 13066B   25113.84546911  .00006940  00000-0  61009-3 0  9998
2 39417  97.7768  71.1361 0043366 205.9032 154.0019 14.96134474617920
Delfi-N3xt
1 39428U 13066N   25113.75866570  .00008951  00000-0  92487-3 0  9994
2 39428  97.8357  31.9602 0086674 153.5294 207.0388 14.87575451612293
GOMX-1
1 39430U 13066Q   25113.84933397  .00003362  00000-0  52860-3 0  9991
2 39430  97.6901 335.3720 0132526 342.6798  16.9908 14.67432475608554
LO-74
1 39440U 13066AA  25113.79550549  .00008900  00000-0  90714-3 0  9993
2 39440  97.8462  58.7014 0061887 336.2777  23.5590 14.89485957615677
AO-73
1 39444U 13066AE  25112.84601981  .00011917  00000-0  90938-3 0  9999
2 39444  97.7723  74.6190 0040954 186.0376 174.0360 15.01480903616422
DTUSAT-2
1 40030U 14033W   25112.38046062  .00013484  00000-0  89234-3 0  9997
2 40030  98.0524  81.9074 0007841 211.9854 148.0897 15.07453790589130
EO-80
1 40032U 14033Y   25113.66430080  .00012157  00000-0  80292-3 0  9999
2 40032  98.0396  82.9706 0009473 148.0555 212.1247 15.07543880589821
LILACSAT-2
1 40908U 15049K   25113.84083987  .00017524  00000-0  47521-3 0  9990
2 40908  97.5102 133.0898 0008255 340.1893  19.9030 15.37661155531042
IO-86
1 40931U 15052B   25038.81889873  .00001817  00000-0  15548-3 0  9993
2 40931   6.0001 108.1159 0012838 187.7041 172.2889 14.78568669506492
Horyu-4
1 41340U 16012D   25113.62048922  .00031659  00000-0  91241-3 0  9991
2 41340  30.9969  87.2256 0008433 283.6284  76.3422 15.34483115505561
Lapan A3
1 41603U 16040E   25113.07441762  .00006525  00000-0  23047-3 0  9995
2 41603  97.1388 119.5560 0013129  81.3230 278.9498 15.29450765490523
CAS-2T
1 41847U 16066G   25112.64244256  .00001516  00000-0  22576-3 0  9995
2 41847  98.4217 187.5174 0345867 323.6969  34.1194 14.43353011444101
CAS-4B
1 42759U 17034B   25112.84228250  .00075381  00000-0  10021-2 0  9994
2 42759  43.0082 245.1292 0019849 315.4337  44.4929 15.57030510435144
CAS-4A
1 42761U 17034D   25112.84428067  .00080805  00000-0  10374-2 0  9993
2 42761  43.0117 242.7092 0021117 319.8211  40.1090 15.57899280435157
TechnoSat
1 42829U 17042E   25112.53064003  .00006378  00000-0  49798-3 0  9995
2 42829  97.3930 283.5376 0015636  83.3559 276.9445 15.01354210423510
AO-91
1 43017U 17073E   25112.16894181  .00016202  00000-0  84430-3 0  9995
2 43017  97.5334 344.1733 0173921 332.1022  27.0959 15.03840618401934
S-Net D
1 43186U 18014G   25112.70387731  .00008478  00000-0  50731-3 0  9999
2 43186  97.5658  16.1072 0010450  39.3143 320.8843 15.11238250395142
S-Net B
1 43187U 18014H   25113.70186500  .00007764  00000-0  46492-3 0  9998
2 43187  97.5666  17.0639 0010916  31.1590 329.0285 15.11237133395290
S-Net A
1 43188U 18014J   25112.70442569  .00008460  00000-0  50610-3 0  9999
2 43188  97.5673  16.2211 0010862  35.4468 324.7482 15.11243476395149
S-Net C
1 43189U 18014K   25112.31368423  .00009427  00000-0  56372-3 0  9998
2 43189  97.5692  15.8402 0012231  29.1192 331.0718 15.11212260393636
Ten-Koh
1 43677U 18084G   25112.91431873  .00004584  00000-0  37067-3 0  9992
2 43677  98.0923 283.2752 0008855  82.7945 277.4284 15.00294554353099
PO-101
1 43678U 18084H   25113.03632251  .00005156  00000-0  44078-3 0  9996
2 43678  98.1025 287.3601 0010297  87.1263 273.1137 14.98065100353265
QO-100
1 43700U 18090A   25112.84429277  .00000146  00000-0  00000-0 0  9997
2 43700   0.0155 216.6958 0001807 214.9985 109.1882  1.00269250 23467
MinXSS-2
1 43758U 18099A   25112.62511482  .00022161  00000-0  91538-3 0  9995
2 43758  97.5054 178.5538 0010600 328.5938  31.4665 15.23973190349664
AO-95
1 43770U 18099N   25112.62170255  .00014891  00000-0  77234-3 0  9996
2 43770  97.4967 171.2594 0011070  28.5778 331.6059 15.16197132349289
RANGE-A
1 43773U 18099R   25113.11749398  .00007496  00000-0  48301-3 0  9990
2 43773  97.4539 162.8989 0011126   5.1397 354.9944 15.08559564349060
MOVE-II
1 43780U 18099Y   25112.18693026  .00168226  00000-0  21641-2 0  9996
2 43780  97.4694 184.7893 0003230 247.0231 113.0684 15.58490530350225
SNUSat 2
1 43782U 18099AA  25112.56465680  .00013274  00000-0  73852-3 0  9997
2 43782  97.4645 168.3383 0010920 325.1084  34.9431 15.13732162349234
SnugLite
1 43784U 18099AC  25113.12392361  .00014018  00000-0  72177-3 0  9993
2 43784  97.4461 168.3580 0002265 345.0417  15.0749 15.16517069349440
ITASat 1
1 43786U 18099AE  25112.58508505  .00010250  00000-0  59551-3 0  9998
2 43786  97.4612 168.0055 0014612  19.0344 341.1430 15.12200560349205
EAGLET 1
1 43790U 18099AJ  25112.60248186  .00006883  00000-0  44373-3 0  9995
2 43790  97.4816 168.1295 0011861   3.2251 356.9052 15.08565575348835
ESEO
1 43792U 18099AL  25112.58514324  .00002959  00000-0  22753-3 0  9992
2 43792  97.4541 162.0119 0010794 340.4080  19.6729 15.02401928348615
CSIM
1 43793U 18099AM  25112.67192532  .00142602  00000-0  18226-2 0  9995
2 43793  97.4870 187.4835 0005934 258.9282 101.1307 15.58738904350142
JO-97
1 43803U 18099AX  25112.14026179  .00020665  00000-0  97382-3 0  9997
2 43803  97.4710 171.6813 0006084 320.9422  39.1372 15.19515412349415
Suomi 100
1 43804U 18099AY  25112.60724916  .00013949  00000-0  70113-3 0  9993
2 43804  97.4775 171.5693 0011073 319.5190  40.5219 15.17315471349420
ISAT
1 43879U 18111D   25113.70134414  .00028796  00000-0  10592-2 0  9990
2 43879  97.5983  27.1215 0009729  19.7116 340.4497 15.27795371344519
UWE-4
1 43880U 18111E   25112.71168441  .00024717  00000-0  10121-2 0  9996
2 43880  97.5923  24.9098 0013545  28.6694 331.5284 15.24212483346332
Sparrow
1 43881U 18111F   25112.73737026  .00030515  00000-0  10872-2 0  9996
2 43881  97.6115  28.8394 0009509  58.5016 301.7151 15.28832998346474
Prox-1
1 44339U 19036A   25112.99926436  .00016995  00000-0  22228-2 0  9999
2 44339  23.9972  14.0892 0007157 250.1753 109.7973 14.78790249311051
SONATE
1 44400U 19038Q   25113.00673528  .00152016  00000-0  10054-2 0  9993
2 44400  97.6983 134.2227 0008185  85.8531 274.3668 15.75069412322046
Taurus 1
1 44530U 19059C   25113.07030284  .00012609  00000-0  23540-2 0  9990
2 44530  98.6003 250.2480 0010773 178.7432 181.3799 14.65060820296989
